Time,TemperatureF,DewpointF,PressureIn,WindDirection,WindDirectionDegrees,WindSpeedMPH,WindSpeedGustMPH,Humidity,HourlyPrecipIn,Conditions,Clouds,dailyrainin,SoftwareType,DateUTC
2013-01-10 00:04:00,51.0,40.4,17.52,NNE,25,3.0,5.0,67,0.00,,,0.00,Wunderground v.1.15,2013-01-10 06:04:00,
2013-01-10 00:10:00,50.9,40.7,17.52,ENE,74,2.0,2.0,68,0.00,,,0.00,Wunderground v.1.15,2013-01-10 06:10:00,
2013-01-10 00:15:00,50.7,40.9,17.52,North,350,3.0,5.0,69,0.00,,,0.00,Wunderground v.1.15,2013-01-10 06:15:00,
2013-01-10 00:20:00,50.6,41.5,17.52,NE,53,0.0,3.0,71,0.00,,,0.00,Wunderground v.1.15,2013-01-10 06:20:00,
2013-01-10 00:26:00,50.3,41.3,17.52,ENE,75,1.0,7.0,71,0.00,,,0.00,Wunderground v.1.15,2013-01-10 06:26:00,
2013-01-10 00:31:00,50.1,41.4,17.52,NNW,342,4.0,4.0,72,0.00,,,0.00,Wunderground v.1.15,2013-01-10 06:31:00,
2013-01-10 00:36:00,49.8,41.5,17.52,NE,34,3.0,5.0,73,0.00,,,0.00,Wunderground v.1.15,2013-01-10 06:36:00,
2013-01-10 00:42:00,49.6,41.7,17.52,ENE,71,3.0,5.0,74,0.00,,,0.00,Wunderground v.1.15,2013-01-10 06:42:00,
2013-01-10 00:47:00,49.5,41.6,17.52,SE,126,2.0,5.0,74,0.00,,,0.00,Wunderground v.1.15,2013-01-10 06:47:00,
2013-01-10 00:52:00,49.3,41.7,17.52,ENE,62,3.0,3.0,75,0.00,,,0.00,Wunderground v.1.15,2013-01-10 06:52:00,
2013-01-10 00:58:00,49.2,42.0,17.52,East,82,2.0,5.0,76,0.00,,,0.00,Wunderground v.1.15,2013-01-10 06:58:00,
2013-01-10 01:04:00,49.0,42.1,17.52,ESE,118,4.0,10.0,77,0.00,,,0.00,Wunderground v.1.15,2013-01-10 07:04:00,
2013-01-10 01:09:00,49.0,42.1,17.52,SE,140,0.0,10.0,77,0.00,,,0.00,Wunderground v.1.15,2013-01-10 07:09:00,
2013-01-10 01:14:00,48.8,42.2,17.52,SSE,166,0.0,4.0,78,0.00,,,0.00,Wunderground v.1.15,2013-01-10 07:14:00,
2013-01-10 01:20:00,48.6,42.4,17.52,NE,37,4.0,4.0,79,0.00,,,0.00,Wunderground v.1.15,2013-01-10 07:20:00,
2013-01-10 01:26:00,48.5,42.6,17.52,East,100,3.0,4.0,80,0.00,,,0.00,Wunderground v.1.15,2013-01-10 07:26:00,
2013-01-10 01:32:00,48.5,42.6,16.81,ESE,106,1.0,3.0,80,0.00,,,0.00,Wunderground v.1.15,2013-01-10 07:32:00,
2013-01-10 01:37:00,48.4,42.5,16.81,East,98,2.0,5.0,80,0.00,,,0.00,Wunderground v.1.15,2013-01-10 07:37:00,
2013-01-10 01:42:00,48.3,42.4,17.34,ENE,67,3.0,5.0,80,0.00,,,0.00,Wunderground v.1.15,2013-01-10 07:42:00,
2013-01-10 01:47:00,48.3,42.4,17.34,East,86,4.0,5.0,80,0.00,,,0.00,Wunderground v.1.15,2013-01-10 07:47:00,
2013-01-10 01:53:00,48.2,42.3,17.34,North,5,3.0,3.0,80,0.00,,,0.00,Wunderground v.1.15,2013-01-10 07:53:00,
2013-01-10 01:58:00,48.2,42.6,17.34,SSW,197,10.0,10.0,81,0.00,,,0.00,Wunderground v.1.15,2013-01-10 07:58:00,
2013-01-10 02:03:00,48.2,42.6,17.34,West,279,2.0,6.0,81,0.00,,,0.00,Wunderground v.1.15,2013-01-10 08:03:00,
2013-01-10 02:08:00,48.2,42.6,17.34,South,190,10.0,10.0,81,0.00,,,0.00,Wunderground v.1.15,2013-01-10 08:08:00,
2013-01-10 02:13:00,48.2,42.6,17.34,North,360,4.0,6.0,81,0.00,,,0.00,Wunderground v.1.15,2013-01-10 08:13:00,
2013-01-10 02:18:00,48.3,42.7,17.34,South,190,11.0,11.0,81,0.00,,,0.00,Wunderground v.1.15,2013-01-10 08:18:00,
2013-01-10 02:23:00,48.2,42.6,17.34,NNE,22,7.0,12.0,81,0.00,,,0.00,Wunderground v.1.15,2013-01-10 08:23:00,
2013-01-10 02:28:00,48.2,42.6,17.34,East,84,0.0,12.0,81,0.00,,,0.00,Wunderground v.1.15,2013-01-10 08:28:00,
2013-01-10 02:33:00,48.2,42.6,17.34,SSE,157,2.0,4.0,81,0.00,,,0.00,Wunderground v.1.15,2013-01-10 08:33:00,
2013-01-10 02:38:00,48.1,42.5,17.34,SSE,167,2.0,7.0,81,0.00,,,0.00,Wunderground v.1.15,2013-01-10 08:38:00,
2013-01-10 02:43:00,48.1,42.5,17.34,West,267,2.0,6.0,81,0.00,,,0.00,Wunderground v.1.15,2013-01-10 08:43:00,
2013-01-10 02:48:00,48.0,42.4,17.34,ESE,108,2.0,9.0,81,0.00,,,0.00,Wunderground v.1.15,2013-01-10 08:48:00,
2013-01-10 02:53:00,48.0,42.4,17.34,NW,321,4.0,6.0,81,0.00,,,0.00,Wunderground v.1.15,2013-01-10 08:53:00,
2013-01-10 02:58:00,47.9,42.3,17.34,North,355,2.0,6.0,81,0.00,,,0.00,Wunderground v.1.15,2013-01-10 08:58:00,
2013-01-10 03:03:00,47.9,42.7,17.92,SE,142,11.0,11.0,82,0.00,,,0.00,Wunderground v.1.15,2013-01-10 09:03:00,
2013-01-10 03:08:00,47.8,42.6,17.92,NNE,28,1.0,11.0,82,0.00,,,0.00,Wunderground v.1.15,2013-01-10 09:08:00,
2013-01-10 03:13:00,47.8,42.6,17.92,East,83,5.0,5.0,82,0.00,,,0.00,Wunderground v.1.15,2013-01-10 09:13:00,
2013-01-10 03:18:00,47.7,42.5,17.92,ESE,104,2.0,5.0,82,0.00,,,0.00,Wunderground v.1.15,2013-01-10 09:18:00,
2013-01-10 03:23:00,47.6,42.7,17.92,NNW,346,1.0,6.0,83,0.00,,,0.00,Wunderground v.1.15,2013-01-10 09:23:00,
2013-01-10 03:28:00,47.6,42.7,17.92,SE,133,3.0,6.0,83,0.00,,,0.00,Wunderground v.1.15,2013-01-10 09:28:00,
2013-01-10 03:34:00,47.5,42.6,17.92,SSE,150,0.0,6.0,83,0.00,,,0.00,Wunderground v.1.15,2013-01-10 09:34:00,
2013-01-10 03:39:00,47.4,42.8,17.92,East,96,1.0,7.0,84,0.00,,,0.00,Wunderground v.1.15,2013-01-10 09:39:00,
2013-01-10 03:44:00,47.3,42.7,17.92,SE,128,0.0,10.0,84,0.00,,,0.00,Wunderground v.1.15,2013-01-10 09:44:00,
2013-01-10 03:49:00,47.3,42.7,17.92,East,94,3.0,10.0,84,0.00,,,0.00,Wunderground v.1.15,2013-01-10 09:49:00,
2013-01-10 03:54:00,47.2,42.6,17.92,SE,126,4.0,9.0,84,0.00,,,0.00,Wunderground v.1.15,2013-01-10 09:54:00,
2013-01-10 03:59:00,47.1,42.5,17.92,SW,216,1.0,9.0,84,0.00,,,0.00,Wunderground v.1.15,2013-01-10 09:59:00,
2013-01-10 04:04:00,47.0,42.7,17.92,ESE,115,0.0,6.0,85,0.00,,,0.00,Wunderground v.1.15,2013-01-10 10:04:00,
2013-01-10 04:09:00,47.0,42.7,17.73,NE,40,4.0,6.0,85,0.00,,,0.00,Wunderground v.1.15,2013-01-10 10:09:00,
2013-01-10 04:14:00,46.9,42.6,17.73,SSE,166,1.0,5.0,85,0.00,,,0.00,Wunderground v.1.15,2013-01-10 10:14:00,
2013-01-10 04:19:00,46.8,42.5,17.73,SE,126,2.0,10.0,85,0.00,,,0.00,Wunderground v.1.15,2013-01-10 10:19:00,
2013-01-10 04:24:00,46.8,42.8,17.73,ESE,113,2.0,9.0,86,0.00,,,0.00,Wunderground v.1.15,2013-01-10 10:24:00,
2013-01-10 04:29:00,46.7,42.7,17.73,SE,140,5.0,9.0,86,0.00,,,0.00,Wunderground v.1.15,2013-01-10 10:29:00,
2013-01-10 04:34:00,46.7,42.7,17.73,SSE,159,0.0,6.0,86,0.00,,,0.00,Wunderground v.1.15,2013-01-10 10:34:00,
2013-01-10 04:39:00,46.6,42.6,17.73,East,87,2.0,8.0,86,0.00,,,0.00,Wunderground v.1.15,2013-01-10 10:39:00,
2013-01-10 04:44:00,46.5,42.8,17.73,South,182,1.0,6.0,87,0.00,,,0.00,Wunderground v.1.15,2013-01-10 10:44:00,
2013-01-10 04:49:00,46.5,42.8,17.73,SSE,164,2.0,7.0,87,0.00,,,0.00,Wunderground v.1.15,2013-01-10 10:49:00,
2013-01-10 04:54:00,46.5,42.8,17.73,SSW,208,1.0,5.0,87,0.00,,,0.00,Wunderground v.1.15,2013-01-10 10:54:00,
2013-01-10 04:59:00,46.4,42.7,17.73,North,5,0.0,7.0,87,0.00,,,0.00,Wunderground v.1.15,2013-01-10 10:59:00,
2013-01-10 05:04:00,46.3,42.9,17.73,WSW,241,0.0,6.0,88,0.00,,,0.00,Wunderground v.1.15,2013-01-10 11:04:00,
2013-01-10 05:09:00,46.3,42.9,16.89,ENE,61,0.0,6.0,88,0.00,,,0.00,Wunderground v.1.15,2013-01-10 11:09:00,
2013-01-10 05:14:00,46.3,42.9,16.89,East,90,0.0,5.0,88,0.00,,,0.00,Wunderground v.1.15,2013-01-10 11:14:00,
2013-01-10 05:19:00,46.2,42.8,16.89,North,355,0.0,5.0,88,0.00,,,0.00,Wunderground v.1.15,2013-01-10 11:19:00,
2013-01-10 05:24:00,46.2,42.8,16.89,NE,34,3.0,6.0,88,0.00,,,0.00,Wunderground v.1.15,2013-01-10 11:24:00,
2013-01-10 05:30:00,46.2,42.8,16.89,SSW,194,0.0,1.0,88,0.00,,,0.00,Wunderground v.1.15,2013-01-10 11:30:00,
2013-01-10 05:35:00,46.1,42.7,16.89,SE,126,2.0,4.0,88,0.00,,,0.00,Wunderground v.1.15,2013-01-10 11:35:00,
2013-01-10 05:40:00,46.1,42.7,16.89,SSW,204,1.0,1.0,88,0.00,,,0.00,Wunderground v.1.15,2013-01-10 11:40:00,
2013-01-10 05:45:00,46.1,42.7,16.89,ESE,105,0.0,5.0,88,0.00,,,0.00,Wunderground v.1.15,2013-01-10 11:45:00,
2013-01-10 05:50:00,46.1,42.7,16.89,ESE,114,0.0,2.0,88,0.00,,,0.00,Wunderground v.1.15,2013-01-10 11:50:00,
2013-01-10 05:55:00,46.1,42.7,16.89,North,350,3.0,5.0,88,0.00,,,0.00,Wunderground v.1.15,2013-01-10 11:55:00,
2013-01-10 06:00:00,46.0,42.6,16.89,WNW,290,3.0,4.0,88,0.00,,,0.00,Wunderground v.1.15,2013-01-10 12:00:00,
2013-01-10 06:05:00,46.0,42.6,16.89,East,94,3.0,6.0,88,0.00,,,0.00,Wunderground v.1.15,2013-01-10 12:05:00,
2013-01-10 06:10:00,46.0,42.9,16.89,ESE,103,1.0,2.0,89,0.00,,,0.00,Wunderground v.1.15,2013-01-10 12:10:00,
2013-01-10 06:15:00,46.0,42.9,16.89,North,360,3.0,4.0,89,0.00,,,0.00,Wunderground v.1.15,2013-01-10 12:15:00,
2013-01-10 06:20:00,46.0,42.9,19.12,East,90,2.0,2.0,89,0.00,,,0.00,Wunderground v.1.15,2013-01-10 12:20:00,
2013-01-10 06:25:00,46.0,42.9,19.12,East,86,1.0,5.0,89,0.00,,,0.00,Wunderground v.1.15,2013-01-10 12:25:00,
2013-01-10 06:30:00,45.9,42.8,19.12,SE,128,0.0,2.0,89,0.00,,,0.00,Wunderground v.1.15,2013-01-10 12:30:00,
2013-01-10 06:35:00,45.9,42.8,19.12,East,86,3.0,4.0,89,0.00,,,0.00,Wunderground v.1.15,2013-01-10 12:35:00,
2013-01-10 06:40:00,45.9,42.8,19.12,NE,51,2.0,2.0,89,0.00,,,0.00,Wunderground v.1.15,2013-01-10 12:40:00,
2013-01-10 06:45:00,45.9,42.8,19.12,NNE,17,3.0,5.0,89,0.00,,,0.00,Wunderground v.1.15,2013-01-10 12:45:00,
2013-01-10 06:50:00,45.9,42.8,19.12,ESE,114,2.0,5.0,89,0.00,,,0.00,Wunderground v.1.15,2013-01-10 12:50:00,
2013-01-10 06:55:00,45.9,42.8,19.12,East,90,0.0,5.0,89,0.00,,,0.00,Wunderground v.1.15,2013-01-10 12:55:00,
2013-01-10 07:00:00,45.9,42.8,19.12,East,101,3.0,3.0,89,0.00,,,0.00,Wunderground v.1.15,2013-01-10 13:00:00,
2013-01-10 07:05:00,45.8,42.7,19.12,SSE,150,0.0,3.0,89,0.00,,,0.00,Wunderground v.1.15,2013-01-10 13:05:00,
2013-01-10 07:10:00,45.8,42.7,19.12,SE,134,1.0,4.0,89,0.00,,,0.00,Wunderground v.1.15,2013-01-10 13:10:00,
2013-01-10 07:15:00,45.9,42.8,19.12,ENE,78,0.0,4.0,89,0.00,,,0.00,Wunderground v.1.15,2013-01-10 13:15:00,
2013-01-10 07:20:00,45.9,42.8,19.12,NNE,23,2.0,2.0,89,0.00,,,0.00,Wunderground v.1.15,2013-01-10 13:20:00,
2013-01-10 07:25:00,45.9,42.8,19.12,NNE,20,0.0,6.0,89,0.00,,,0.00,Wunderground v.1.15,2013-01-10 13:25:00,
2013-01-10 07:30:00,45.9,42.8,19.12,SE,138,3.0,3.0,89,0.00,,,0.00,Wunderground v.1.15,2013-01-10 13:30:00,
2013-01-10 07:35:00,46.0,42.9,19.12,ENE,74,2.0,3.0,89,0.00,,,0.00,Wunderground v.1.15,2013-01-10 13:35:00,
2013-01-10 07:40:00,46.0,42.9,19.12,SE,140,3.0,3.0,89,0.00,,,0.00,Wunderground v.1.15,2013-01-10 13:40:00,
2013-01-10 07:45:00,46.1,43.3,19.12,East,99,1.0,4.0,90,0.00,,,0.00,Wunderground v.1.15,2013-01-10 13:45:00,
2013-01-10 07:50:00,46.1,43.3,19.12,East,101,1.0,5.0,90,0.00,,,0.00,Wunderground v.1.15,2013-01-10 13:50:00,
2013-01-10 07:55:00,46.2,43.4,19.12,ESE,109,2.0,6.0,90,0.00,,,0.00,Wunderground v.1.15,2013-01-10 13:55:00,
2013-01-10 08:00:00,46.3,43.5,19.12,SSW,193,1.0,4.0,90,0.00,,,0.00,Wunderground v.1.15,2013-01-10 14:00:00,
2013-01-10 08:06:00,46.4,43.6,19.12,ENE,64,1.0,5.0,90,0.00,,,0.00,Wunderground v.1.15,2013-01-10 14:06:00,
2013-01-10 08:11:00,46.4,43.6,19.12,SE,125,0.0,3.0,90,0.00,,,0.00,Wunderground v.1.15,2013-01-10 14:11:00,
2013-01-10 08:16:00,46.5,43.7,19.12,NE,50,4.0,4.0,90,0.00,,,0.00,Wunderground v.1.15,2013-01-10 14:16:00,
2013-01-10 08:21:00,46.5,43.7,19.12,SSE,162,0.0,2.0,90,0.00,,,0.00,Wunderground v.1.15,2013-01-10 14:21:00,
2013-01-10 08:26:00,46.6,43.8,19.12,East,90,0.0,3.0,90,0.00,,,0.00,Wunderground v.1.15,2013-01-10 14:26:00,
2013-01-10 08:31:00,46.7,43.9,16.03,ENE,68,2.0,3.0,90,0.00,,,0.00,Wunderground v.1.15,2013-01-10 14:31:00,
2013-01-10 08:36:00,46.7,43.9,16.03,ENE,60,0.0,5.0,90,0.00,,,0.00,Wunderground v.1.15,2013-01-10 14:36:00,
2013-01-10 08:41:00,46.8,44.0,16.03,SE,126,0.0,3.0,90,0.00,,,0.00,Wunderground v.1.15,2013-01-10 14:41:00,
2013-01-10 08:46:00,46.8,44.0,16.03,WSW,241,2.0,5.0,90,0.00,,,0.00,Wunderground v.1.15,2013-01-10 14:46:00,
2013-01-10 08:51:00,46.9,44.1,16.03,SSW,209,1.0,1.0,90,0.00,,,0.00,Wunderground v.1.15,2013-01-10 14:51:00,
2013-01-10 08:56:00,46.9,44.1,16.03,SSE,149,1.0,5.0,90,0.00,,,0.00,Wunderground v.1.15,2013-01-10 14:56:00,
2013-01-10 09:01:00,46.9,44.1,16.03,ESE,113,2.0,6.0,90,0.00,,,0.00,Wunderground v.1.15,2013-01-10 15:01:00,
2013-01-10 09:06:00,46.9,44.1,17.74,ESE,103,0.0,6.0,90,0.00,,,0.00,Wunderground v.1.15,2013-01-10 15:06:00,
2013-01-10 09:11:00,47.0,44.2,17.74,NNE,20,1.0,3.0,90,0.00,,,0.00,Wunderground v.1.15,2013-01-10 15:11:00,
2013-01-10 09:16:00,47.0,44.2,17.74,NE,35,3.0,4.0,90,0.00,,,0.00,Wunderground v.1.15,2013-01-10 15:16:00,
2013-01-10 09:21:00,47.1,44.3,17.74,SE,133,0.0,3.0,90,0.00,,,0.00,Wunderground v.1.15,2013-01-10 15:21:00,
2013-01-10 09:26:00,47.2,44.4,17.74,East,101,0.0,3.0,90,0.00,,,0.00,Wunderground v.1.15,2013-01-10 15:26:00,
2013-01-10 09:31:00,47.3,44.5,17.74,ESE,121,0.0,3.0,90,0.00,,,0.00,Wunderground v.1.15,2013-01-10 15:31:00,
2013-01-10 09:37:00,47.4,44.6,17.74,East,94,3.0,3.0,90,0.00,,,0.00,Wunderground v.1.15,2013-01-10 15:37:00,
2013-01-10 09:42:00,47.6,44.8,17.74,SSE,150,1.0,2.0,90,0.00,,,0.00,Wunderground v.1.15,2013-01-10 15:42:00,
2013-01-10 09:47:00,47.7,44.9,17.74,NE,36,0.0,4.0,90,0.00,,,0.00,Wunderground v.1.15,2013-01-10 15:47:00,
2013-01-10 09:52:00,47.8,45.0,17.74,SE,127,1.0,4.0,90,0.00,,,0.00,Wunderground v.1.15,2013-01-10 15:52:00,
2013-01-10 09:57:00,47.9,45.1,17.74,SSE,160,3.0,5.0,90,0.00,,,0.00,Wunderground v.1.15,2013-01-10 15:57:00,
2013-01-10 10:02:00,47.9,45.1,17.74,South,187,3.0,5.0,90,0.00,,,0.00,Wunderground v.1.15,2013-01-10 16:02:00,
2013-01-10 10:07:00,48.0,45.2,17.74,East,86,1.0,5.0,90,0.00,,,0.00,Wunderground v.1.15,2013-01-10 16:07:00,
2013-01-10 10:12:00,48.1,45.3,17.74,ENE,71,0.0,2.0,90,0.00,,,0.00,Wunderground v.1.15,2013-01-10 16:12:00,
2013-01-10 10:17:00,48.2,45.4,17.41,North,11,3.0,5.0,90,0.00,,,0.00,Wunderground v.1.15,2013-01-10 16:17:00,
2013-01-10 10:22:00,48.3,45.5,17.41,ENE,71,0.0,3.0,90,0.00,,,0.00,Wunderground v.1.15,2013-01-10 16:22:00,
2013-01-10 10:27:00,48.4,45.6,17.41,East,89,1.0,6.0,90,0.00,,,0.00,Wunderground v.1.15,2013-01-10 16:27:00,
2013-01-10 10:32:00,48.4,45.6,17.65,ESE,121,2.0,6.0,90,0.00,,,0.01,Wunderground v.1.15,2013-01-10 16:32:00,
2013-01-10 10:37:00,48.5,46.0,17.65,SSE,161,0.0,6.0,91,0.00,,,0.01,Wunderground v.1.15,2013-01-10 16:37:00,
2013-01-10 10:42:00,48.5,46.0,17.65,East,99,0.0,3.0,91,0.00,,,0.01,Wunderground v.1.15,2013-01-10 16:42:00,
2013-01-10 10:47:00,48.5,46.0,17.65,ESE,103,0.0,4.0,91,0.00,,,0.01,Wunderground v.1.15,2013-01-10 16:47:00,
2013-01-10 10:52:00,48.6,46.1,16.99,ESE,120,0.0,3.0,91,0.00,,,0.01,Wunderground v.1.15,2013-01-10 16:52:00,
2013-01-10 10:57:00,48.7,46.2,16.99,ESE,102,2.0,3.0,91,0.00,,,0.01,Wunderground v.1.15,2013-01-10 16:57:00,
2013-01-10 11:02:00,48.8,46.3,16.99,East,80,2.0,4.0,91,0.00,,,0.01,Wunderground v.1.15,2013-01-10 17:02:00,
2013-01-10 11:07:00,48.8,46.3,16.99,SSE,165,1.0,5.0,91,0.00,,,0.01,Wunderground v.1.15,2013-01-10 17:07:00,
2013-01-10 11:12:00,48.9,46.4,16.99,NNE,17,1.0,2.0,91,0.00,,,0.01,Wunderground v.1.15,2013-01-10 17:12:00,
2013-01-10 11:17:00,49.1,46.6,16.99,NNE,30,0.0,6.0,91,0.00,,,0.01,Wunderground v.1.15,2013-01-10 17:17:00,
2013-01-10 11:22:00,49.2,46.7,16.99,East,81,0.0,2.0,91,0.00,,,0.01,Wunderground v.1.15,2013-01-10 17:22:00,
2013-01-10 11:27:00,49.2,46.7,16.99,East,92,1.0,4.0,91,0.00,,,0.01,Wunderground v.1.15,2013-01-10 17:27:00,
2013-01-10 11:32:00,49.3,46.8,16.99,SE,138,0.0,2.0,91,0.00,,,0.01,Wunderground v.1.15,2013-01-10 17:32:00,
2013-01-10 11:37:00,49.4,46.9,16.99,SE,132,0.0,2.0,91,0.00,,,0.01,Wunderground v.1.15,2013-01-10 17:37:00,
2013-01-10 11:42:00,49.5,47.3,16.99,ENE,72,1.0,3.0,92,0.00,,,0.01,Wunderground v.1.15,2013-01-10 17:42:00,
2013-01-10 11:47:00,49.7,47.5,16.99,SSE,162,0.0,3.0,92,0.00,,,0.01,Wunderground v.1.15,2013-01-10 17:47:00,
2013-01-10 11:52:00,49.8,47.6,16.99,ENE,60,3.0,3.0,92,0.00,,,0.01,Wunderground v.1.15,2013-01-10 17:52:00,
2013-01-10 11:57:00,49.9,47.7,16.99,East,93,1.0,3.0,92,0.00,,,0.01,Wunderground v.1.15,2013-01-10 17:57:00,
2013-01-10 12:02:00,50.1,47.9,16.63,ESE,119,4.0,4.0,92,0.00,,,0.01,Wunderground v.1.15,2013-01-10 18:02:00,
2013-01-10 12:07:00,50.3,48.1,16.63,SSW,211,4.0,4.0,92,0.00,,,0.01,Wunderground v.1.15,2013-01-10 18:07:00,
2013-01-10 12:12:00,50.8,48.6,16.63,ESE,123,2.0,3.0,92,0.00,,,0.01,Wunderground v.1.15,2013-01-10 18:12:00,
2013-01-10 12:17:00,51.3,49.1,16.65,SSW,194,1.0,5.0,92,0.00,,,0.01,Wunderground v.1.15,2013-01-10 18:17:00,
2013-01-10 12:22:00,52.3,50.0,16.65,NE,36,1.0,1.0,92,0.00,,,0.01,Wunderground v.1.15,2013-01-10 18:22:00,
2013-01-10 12:27:00,53.6,51.3,16.65,NNE,32,3.0,4.0,92,0.00,,,0.01,Wunderground v.1.15,2013-01-10 18:27:00,
2013-01-10 12:33:00,54.4,51.5,16.65,East,82,0.0,5.0,90,0.00,,,0.01,Wunderground v.1.15,2013-01-10 18:33:00,
2013-01-10 12:38:00,54.9,51.7,16.65,East,97,0.0,5.0,89,0.00,,,0.01,Wunderground v.1.15,2013-01-10 18:38:00,
2013-01-10 12:43:00,55.6,51.8,16.65,ESE,105,1.0,2.0,87,0.00,,,0.01,Wunderground v.1.15,2013-01-10 18:43:00,
2013-01-10 12:48:00,56.0,51.9,16.65,East,92,0.0,2.0,86,0.00,,,0.01,Wunderground v.1.15,2013-01-10 18:48:00,
2013-01-10 12:53:00,56.2,51.7,16.65,ENE,64,0.0,1.0,85,0.00,,,0.01,Wunderground v.1.15,2013-01-10 18:53:00,
2013-01-10 12:58:00,56.2,51.7,16.65,ENE,65,1.0,1.0,85,0.00,,,0.01,Wunderground v.1.15,2013-01-10 18:58:00,
2013-01-10 13:03:00,56.2,51.7,16.65,ENE,68,0.0,2.0,85,0.00,,,0.01,Wunderground v.1.15,2013-01-10 19:03:00,
2013-01-10 13:08:00,56.3,51.8,16.65,SE,134,0.0,2.0,85,0.00,,,0.01,Wunderground v.1.15,2013-01-10 19:08:00,
2013-01-10 13:13:00,56.3,51.8,16.65,SW,221,1.0,6.0,85,0.00,,,0.01,Wunderground v.1.15,2013-01-10 19:13:00,
2013-01-10 13:18:00,56.2,51.7,16.65,SSE,150,0.0,6.0,85,0.00,,,0.01,Wunderground v.1.15,2013-01-10 19:18:00,
2013-01-10 13:23:00,56.2,52.1,16.65,SSE,157,1.0,3.0,86,0.00,,,0.01,Wunderground v.1.15,2013-01-10 19:23:00,
2013-01-10 13:28:00,56.3,52.2,16.65,SE,141,0.0,3.0,86,0.00,,,0.01,Wunderground v.1.15,2013-01-10 19:28:00,
2013-01-10 13:33:00,56.3,52.5,16.65,SSE,151,0.0,1.0,87,0.00,,,0.01,Wunderground v.1.15,2013-01-10 19:33:00,
2013-01-10 13:38:00,56.4,52.6,16.65,East,85,0.0,1.0,87,0.00,,,0.01,Wunderground v.1.15,2013-01-10 19:38:00,
2013-01-10 13:43:00,56.3,52.5,16.98,ENE,72,0.0,3.0,87,0.00,,,0.01,Wunderground v.1.15,2013-01-10 19:43:00,
2013-01-10 13:48:00,56.2,52.4,16.98,SSE,150,0.0,3.0,87,0.00,,,0.01,Wunderground v.1.15,2013-01-10 19:48:00,
2013-01-10 13:53:00,56.1,52.6,16.98,SSE,148,0.0,2.0,88,0.00,,,0.01,Wunderground v.1.15,2013-01-10 19:53:00,
2013-01-10 13:58:00,56.1,52.6,16.98,East,94,0.0,2.0,88,0.00,,,0.01,Wunderground v.1.15,2013-01-10 19:58:00,
2013-01-10 14:03:00,56.0,52.5,16.98,East,94,0.0,1.0,88,0.00,,,0.01,Wunderground v.1.15,2013-01-10 20:03:00,
2013-01-10 14:08:00,55.9,52.4,16.98,East,82,0.0,2.0,88,0.00,,,0.01,Wunderground v.1.15,2013-01-10 20:08:00,
2013-01-10 14:13:00,55.8,52.3,16.98,ESE,109,0.0,1.0,88,0.00,,,0.01,Wunderground v.1.15,2013-01-10 20:13:00,
2013-01-10 14:18:00,55.8,52.6,16.98,ESE,107,1.0,2.0,89,0.00,,,0.01,Wunderground v.1.15,2013-01-10 20:18:00,
2013-01-10 14:23:00,55.9,52.7,16.98,South,189,0.0,1.0,89,0.00,,,0.01,Wunderground v.1.15,2013-01-10 20:23:00,
2013-01-10 14:28:00,55.9,52.7,16.98,ENE,76,0.0,1.0,89,0.00,,,0.01,Wunderground v.1.15,2013-01-10 20:28:00,
2013-01-10 14:33:00,56.0,52.8,16.98,SE,129,0.0,2.0,89,0.00,,,0.01,Wunderground v.1.15,2013-01-10 20:33:00,
2013-01-10 14:38:00,56.3,53.4,16.98,East,80,0.0,2.0,90,0.00,,,0.01,Wunderground v.1.15,2013-01-10 20:38:00,
2013-01-10 14:43:00,56.6,53.7,16.98,East,101,0.0,1.0,90,0.00,,,0.01,Wunderground v.1.15,2013-01-10 20:43:00,
2013-01-10 14:48:00,56.7,53.8,16.98,SSE,160,2.0,2.0,90,0.00,,,0.01,Wunderground v.1.15,2013-01-10 20:48:00,
2013-01-10 14:53:00,56.8,53.9,16.98,East,80,0.0,1.0,90,0.00,,,0.01,Wunderground v.1.15,2013-01-10 20:53:00,
2013-01-10 14:58:00,56.9,54.0,16.98,East,80,0.0,1.0,90,0.00,,,0.01,Wunderground v.1.15,2013-01-10 20:58:00,
2013-01-10 15:03:00,57.1,54.2,16.98,SSW,207,0.0,0.0,90,0.00,,,0.01,Wunderground v.1.15,2013-01-10 21:03:00,
2013-01-10 15:08:00,57.3,54.7,16.98,SE,135,0.0,1.0,91,0.00,,,0.01,Wunderground v.1.15,2013-01-10 21:08:00,
2013-01-10 15:13:00,57.5,54.9,16.98,East,87,0.0,2.0,91,0.00,,,0.01,Wunderground v.1.15,2013-01-10 21:13:00,
2013-01-10 15:18:00,57.6,55.0,16.98,South,178,0.0,3.0,91,0.00,,,0.01,Wunderground v.1.15,2013-01-10 21:18:00,
2013-01-10 15:23:00,57.8,55.2,16.98,South,173,0.0,1.0,91,0.00,,,0.01,Wunderground v.1.15,2013-01-10 21:23:00,
2013-01-10 15:28:00,57.8,55.2,16.98,South,173,0.0,2.0,91,0.00,,,0.01,Wunderground v.1.15,2013-01-10 21:28:00,
2013-01-10 15:33:00,58.0,55.4,16.98,SSE,156,0.0,1.0,91,0.00,,,0.01,Wunderground v.1.15,2013-01-10 21:33:00,
2013-01-10 15:38:00,58.0,55.4,16.98,SSE,161,0.0,1.0,91,0.00,,,0.01,Wunderground v.1.15,2013-01-10 21:38:00,
2013-01-10 15:43:00,58.1,55.5,16.98,SSE,161,0.0,1.0,91,0.00,,,0.01,Wunderground v.1.15,2013-01-10 21:43:00,
2013-01-10 15:48:00,58.1,55.5,16.98,SSE,157,0.0,1.0,91,0.00,,,0.01,Wunderground v.1.15,2013-01-10 21:48:00,
2013-01-10 15:53:00,58.2,55.6,16.98,SSE,157,0.0,0.0,91,0.00,,,0.01,Wunderground v.1.15,2013-01-10 21:53:00,
2013-01-10 15:58:00,58.2,55.6,16.98,SSE,157,0.0,0.0,91,0.00,,,0.01,Wunderground v.1.15,2013-01-10 21:58:00,
2013-01-10 16:03:00,58.1,55.2,16.98,NNE,15,0.0,3.0,90,0.00,,,0.01,Wunderground v.1.15,2013-01-10 22:03:00,
2013-01-10 16:08:00,57.6,54.7,16.98,ESE,108,0.0,5.0,90,0.00,,,0.01,Wunderground v.1.15,2013-01-10 22:08:00,
2013-01-10 16:13:00,57.2,54.0,16.98,ESE,106,0.0,4.0,89,1.62,,,0.03,Wunderground v.1.15,2013-01-10 22:13:00,
2013-01-10 16:18:00,57.0,53.8,16.98,ESE,103,0.0,4.0,89,0.19,,,0.07,Wunderground v.1.15,2013-01-10 22:18:00,
2013-01-10 16:23:00,56.8,53.6,16.98,SE,129,0.0,3.0,89,0.07,,,0.07,Wunderground v.1.15,2013-01-10 22:23:00,
2013-01-10 16:28:00,56.6,53.4,16.98,ENE,72,1.0,3.0,89,0.05,,,0.07,Wunderground v.1.15,2013-01-10 22:28:00,
2013-01-10 16:34:00,56.4,53.5,16.98,ENE,71,0.0,1.0,90,0.00,,,0.07,Wunderground v.1.15,2013-01-10 22:34:00,
2013-01-10 16:39:00,56.2,53.3,16.98,SE,132,0.0,2.0,90,0.00,,,0.07,Wunderground v.1.15,2013-01-10 22:39:00,
2013-01-10 16:44:00,56.0,53.1,16.71,SE,132,0.0,2.0,90,0.00,,,0.07,Wunderground v.1.15,2013-01-10 22:44:00,
2013-01-10 16:49:00,55.9,53.0,16.71,NNW,342,0.0,2.0,90,0.00,,,0.07,Wunderground v.1.15,2013-01-10 22:49:00,
2013-01-10 16:54:00,55.8,52.9,16.71,NNW,343,0.0,0.0,90,0.00,,,0.07,Wunderground v.1.15,2013-01-10 22:54:00,
2013-01-10 16:59:00,55.7,52.8,16.71,NNW,343,0.0,1.0,90,0.00,,,0.08,Wunderground v.1.15,2013-01-10 22:59:00,
2013-01-10 17:04:00,55.6,52.7,16.71,NNW,331,0.0,0.0,90,0.00,,,0.08,Wunderground v.1.15,2013-01-10 23:04:00,
2013-01-10 17:09:00,55.5,52.6,17.21,NNW,329,0.0,0.0,90,0.00,,,0.08,Wunderground v.1.15,2013-01-10 23:09:00,
2013-01-10 17:14:00,55.4,52.5,17.21,NNW,329,0.0,0.0,90,0.00,,,0.08,Wunderground v.1.15,2013-01-10 23:14:00,
2013-01-10 17:19:00,55.4,52.5,17.21,NNW,329,0.0,0.0,90,0.00,,,0.08,Wunderground v.1.15,2013-01-10 23:19:00,
2013-01-10 17:24:00,55.3,52.4,17.21,NNW,329,0.0,0.0,90,0.00,,,0.08,Wunderground v.1.15,2013-01-10 23:24:00,
2013-01-10 17:29:00,55.3,52.4,17.21,NNW,329,0.0,0.0,90,0.00,,,0.08,Wunderground v.1.15,2013-01-10 23:29:00,
2013-01-10 17:34:00,55.1,52.5,17.52,NNW,329,0.0,0.0,91,0.00,,,0.08,Wunderground v.1.15,2013-01-10 23:34:00,
2013-01-10 17:39:00,55.1,52.5,17.52,NNW,329,0.0,0.0,91,0.00,,,0.08,Wunderground v.1.15,2013-01-10 23:39:00,
2013-01-10 17:44:00,55.0,52.1,17.52,NNW,329,0.0,0.0,90,0.00,,,0.08,Wunderground v.1.15,2013-01-10 23:44:00,
2013-01-10 17:49:00,54.8,51.9,17.52,NNW,329,0.0,0.0,90,0.00,,,0.08,Wunderground v.1.15,2013-01-10 23:49:00,
2013-01-10 17:54:00,54.6,51.7,17.52,NNW,329,0.0,0.0,90,0.00,,,0.08,Wunderground v.1.15,2013-01-10 23:54:00,
2013-01-10 17:59:00,54.6,51.7,17.52,NNW,329,0.0,0.0,90,0.00,,,0.08,Wunderground v.1.15,2013-01-10 23:59:00,
2013-01-10 18:04:00,54.5,51.9,17.52,NNW,329,0.0,1.0,91,0.00,,,0.08,Wunderground v.1.15,2013-01-11 00:04:00,
2013-01-10 18:09:00,54.4,51.8,17.52,NNW,329,0.0,1.0,91,0.00,,,0.08,Wunderground v.1.15,2013-01-11 00:09:00,
2013-01-10 18:14:00,54.3,51.7,17.52,NNW,329,0.0,0.0,91,0.00,,,0.08,Wunderground v.1.15,2013-01-11 00:14:00,
2013-01-10 18:19:00,54.3,51.7,17.52,NNW,329,0.0,0.0,91,0.00,,,0.09,Wunderground v.1.15,2013-01-11 00:19:00,
2013-01-10 18:25:00,54.1,51.5,17.52,NW,326,0.0,1.0,91,0.00,,,0.09,Wunderground v.1.15,2013-01-11 00:25:00,
2013-01-10 18:30:00,54.0,51.4,17.52,ENE,78,0.0,0.0,91,0.00,,,0.09,Wunderground v.1.15,2013-01-11 00:30:00,
2013-01-10 18:35:00,53.9,51.3,17.52,ENE,78,0.0,0.0,91,0.00,,,0.09,Wunderground v.1.15,2013-01-11 00:35:00,
2013-01-10 18:40:00,53.8,51.2,17.52,ENE,78,0.0,0.0,91,0.00,,,0.09,Wunderground v.1.15,2013-01-11 00:40:00,
2013-01-10 18:45:00,53.6,51.0,17.52,ESE,109,2.0,2.0,91,0.00,,,0.09,Wunderground v.1.15,2013-01-11 00:45:00,
2013-01-10 18:50:00,53.4,50.8,17.52,SE,134,0.0,0.0,91,0.00,,,0.09,Wunderground v.1.15,2013-01-11 00:50:00,
2013-01-10 18:55:00,53.3,50.7,17.52,SE,134,0.0,0.0,91,0.00,,,0.09,Wunderground v.1.15,2013-01-11 00:55:00,
2013-01-10 19:00:00,53.1,50.5,17.52,SE,134,0.0,0.0,91,0.00,,,0.09,Wunderground v.1.15,2013-01-11 01:00:00,
2013-01-10 19:05:00,53.0,50.4,17.52,SE,134,0.0,0.0,91,0.00,,,0.09,Wunderground v.1.15,2013-01-11 01:05:00,
2013-01-10 19:10:00,52.9,50.3,17.52,SE,134,0.0,0.0,91,0.00,,,0.09,Wunderground v.1.15,2013-01-11 01:10:00,
2013-01-10 19:15:00,52.7,49.8,17.52,SE,134,0.0,0.0,90,0.00,,,0.09,Wunderground v.1.15,2013-01-11 01:15:00,
2013-01-10 19:20:00,52.6,50.0,22.31,SE,134,0.0,0.0,91,0.00,,,0.09,Wunderground v.1.15,2013-01-11 01:20:00,
2013-01-10 19:26:00,52.4,49.6,22.31,SE,134,0.0,0.0,90,0.00,,,0.09,Wunderground v.1.15,2013-01-11 01:26:00,
2013-01-10 19:31:00,52.1,49.3,22.31,SE,134,0.0,0.0,90,0.00,,,0.09,Wunderground v.1.15,2013-01-11 01:31:00,
2013-01-10 19:36:00,51.9,49.1,22.31,SE,134,0.0,0.0,90,0.00,,,0.09,Wunderground v.1.15,2013-01-11 01:36:00,
2013-01-10 19:41:00,51.7,48.9,22.31,SE,134,0.0,0.0,90,0.00,,,0.09,Wunderground v.1.15,2013-01-11 01:41:00,
2013-01-10 19:46:00,51.5,48.7,22.31,SE,134,0.0,0.0,90,0.00,,,0.09,Wunderground v.1.15,2013-01-11 01:46:00,
2013-01-10 19:51:00,51.3,48.5,22.31,SE,135,0.0,0.0,90,0.00,,,0.09,Wunderground v.1.15,2013-01-11 01:51:00,
2013-01-10 19:56:00,51.1,48.3,22.31,SE,135,0.0,0.0,90,0.00,,,0.09,Wunderground v.1.15,2013-01-11 01:56:00,
2013-01-10 20:01:00,50.9,48.1,22.31,SE,134,0.0,0.0,90,0.00,,,0.09,Wunderground v.1.15,2013-01-11 02:01:00,
2013-01-10 20:06:00,50.8,48.0,22.31,SE,135,0.0,0.0,90,0.00,,,0.09,Wunderground v.1.15,2013-01-11 02:06:00,
2013-01-10 20:11:00,50.6,47.8,22.31,SE,135,0.0,0.0,90,0.00,,,0.09,Wunderground v.1.15,2013-01-11 02:11:00,
2013-01-10 20:16:00,50.5,47.7,22.31,SE,135,0.0,0.0,90,0.00,,,0.09,Wunderground v.1.15,2013-01-11 02:16:00,
2013-01-10 20:21:00,50.3,47.5,22.31,SE,135,0.0,0.0,90,0.00,,,0.09,Wunderground v.1.15,2013-01-11 02:21:00,
2013-01-10 20:26:00,50.2,47.4,22.31,SE,135,0.0,0.0,90,0.00,,,0.09,Wunderground v.1.15,2013-01-11 02:26:00,
2013-01-10 20:31:00,50.2,47.4,22.31,SE,134,0.0,0.0,90,0.00,,,0.09,Wunderground v.1.15,2013-01-11 02:31:00,
2013-01-10 20:36:00,50.3,47.8,22.31,SW,233,0.0,1.0,91,0.00,,,0.09,Wunderground v.1.15,2013-01-11 02:36:00,
2013-01-10 20:41:00,50.3,47.8,22.31,South,172,0.0,0.0,91,0.00,,,0.09,Wunderground v.1.15,2013-01-11 02:41:00,
2013-01-10 20:46:00,50.4,47.9,22.31,South,171,0.0,0.0,91,0.00,,,0.09,Wunderground v.1.15,2013-01-11 02:46:00,
2013-01-10 20:51:00,50.5,48.0,22.31,South,170,0.0,0.0,91,0.00,,,0.09,Wunderground v.1.15,2013-01-11 02:51:00,
2013-01-10 20:56:00,50.6,48.1,22.31,WSW,238,0.0,1.0,91,0.00,,,0.09,Wunderground v.1.15,2013-01-11 02:56:00,
2013-01-10 21:01:00,50.6,48.1,22.31,South,173,0.0,2.0,91,0.00,,,0.09,Wunderground v.1.15,2013-01-11 03:01:00,
2013-01-10 21:06:00,50.6,48.1,22.31,SSW,198,0.0,3.0,91,0.00,,,0.09,Wunderground v.1.15,2013-01-11 03:06:00,
2013-01-10 21:11:00,50.5,48.0,22.31,South,175,0.0,2.0,91,0.00,,,0.09,Wunderground v.1.15,2013-01-11 03:11:00,
2013-01-10 21:16:00,50.5,48.0,22.31,West,271,0.0,3.0,91,0.00,,,0.09,Wunderground v.1.15,2013-01-11 03:16:00,
2013-01-10 21:21:00,50.3,47.8,22.31,SSE,166,0.0,1.0,91,0.00,,,0.09,Wunderground v.1.15,2013-01-11 03:21:00,
2013-01-10 21:26:00,50.2,47.7,22.31,NNE,22,1.0,4.0,91,0.00,,,0.09,Wunderground v.1.15,2013-01-11 03:26:00,
2013-01-10 21:31:00,50.2,47.7,22.31,WSW,245,0.0,1.0,91,0.00,,,0.09,Wunderground v.1.15,2013-01-11 03:31:00,
2013-01-10 21:36:00,50.1,47.6,22.31,South,184,0.0,2.0,91,0.00,,,0.09,Wunderground v.1.15,2013-01-11 03:36:00,
2013-01-10 21:41:00,50.1,47.6,22.31,North,9,0.0,4.0,91,0.00,,,0.09,Wunderground v.1.15,2013-01-11 03:41:00,
2013-01-10 21:46:00,50.1,47.6,22.31,SE,145,1.0,4.0,91,0.00,,,0.09,Wunderground v.1.15,2013-01-11 03:46:00,
2013-01-10 21:51:00,50.1,47.6,22.31,SE,138,2.0,3.0,91,0.00,,,0.09,Wunderground v.1.15,2013-01-11 03:51:00,
2013-01-10 21:56:00,50.0,47.5,22.31,ENE,77,0.0,3.0,91,0.00,,,0.09,Wunderground v.1.15,2013-01-11 03:56:00,
2013-01-10 22:01:00,49.9,47.4,22.31,WSW,244,0.0,2.0,91,0.00,,,0.09,Wunderground v.1.15,2013-01-11 04:01:00,
2013-01-10 22:06:00,49.9,47.1,22.31,SSE,161,0.0,3.0,90,0.00,,,0.09,Wunderground v.1.15,2013-01-11 04:06:00,
2013-01-10 22:12:00,49.9,47.1,22.31,NW,315,0.0,3.0,90,0.00,,,0.09,Wunderground v.1.15,2013-01-11 04:12:00,
2013-01-10 22:17:00,49.9,47.1,22.31,SSE,155,5.0,5.0,90,0.00,,,0.09,Wunderground v.1.15,2013-01-11 04:17:00,
2013-01-10 22:22:00,49.9,47.1,22.31,South,187,0.0,2.0,90,0.00,,,0.09,Wunderground v.1.15,2013-01-11 04:22:00,
2013-01-10 22:27:00,49.8,47.0,22.31,ESE,110,0.0,2.0,90,0.00,,,0.09,Wunderground v.1.15,2013-01-11 04:27:00,
2013-01-10 22:32:00,49.7,46.9,22.31,NW,317,3.0,3.0,90,0.00,,,0.09,Wunderground v.1.15,2013-01-11 04:32:00,
2013-01-10 22:37:00,49.6,46.8,22.31,SSW,212,0.0,3.0,90,0.00,,,0.09,Wunderground v.1.15,2013-01-11 04:37:00,
2013-01-10 22:42:00,49.4,46.6,22.31,SSW,211,0.0,1.0,90,0.00,,,0.09,Wunderground v.1.15,2013-01-11 04:42:00,
2013-01-10 22:47:00,49.3,46.2,22.31,SSE,168,2.0,2.0,89,0.00,,,0.09,Wunderground v.1.15,2013-01-11 04:47:00,
2013-01-10 22:52:00,49.2,46.4,22.31,SSE,163,0.0,3.0,90,0.00,,,0.09,Wunderground v.1.15,2013-01-11 04:52:00,
2013-01-10 22:57:00,49.2,46.4,22.31,North,9,1.0,3.0,90,0.00,,,0.09,Wunderground v.1.15,2013-01-11 04:57:00,
2013-01-10 23:02:00,49.2,46.4,22.31,NNE,12,0.0,0.0,90,0.00,,,0.09,Wunderground v.1.15,2013-01-11 05:02:00,
2013-01-10 23:03:00,49.2,46.4,22.31,NNE,12,0.0,0.0,90,0.00,,,0.09,Wunderground v.1.15,2013-01-11 05:03:00,
2013-01-10 23:08:00,49.2,46.4,22.31,SSE,161,0.0,1.0,90,0.00,,,0.09,Wunderground v.1.15,2013-01-11 05:08:00,
2013-01-10 23:13:00,49.2,46.4,22.31,SE,131,0.0,3.0,90,0.00,,,0.09,Wunderground v.1.15,2013-01-11 05:13:00,
2013-01-10 23:18:00,49.2,46.4,22.31,NW,308,0.0,3.0,90,0.00,,,0.09,Wunderground v.1.15,2013-01-11 05:18:00,
2013-01-10 23:23:00,49.2,46.4,22.31,SE,136,1.0,3.0,90,0.00,,,0.09,Wunderground v.1.15,2013-01-11 05:23:00,
2013-01-10 23:28:00,49.3,46.5,22.31,SSW,198,0.0,3.0,90,0.00,,,0.09,Wunderground v.1.15,2013-01-11 05:28:00,
2013-01-10 23:33:00,49.3,46.5,22.31,SE,125,1.0,3.0,90,0.00,,,0.09,Wunderground v.1.15,2013-01-11 05:33:00,
2013-01-10 23:38:00,49.3,46.5,22.31,WSW,249,0.0,3.0,90,0.00,,,0.09,Wunderground v.1.15,2013-01-11 05:38:00,
2013-01-10 23:43:00,49.3,46.5,22.31,East,98,0.0,4.0,90,0.00,,,0.09,Wunderground v.1.15,2013-01-11 05:43:00,
2013-01-10 23:48:00,49.3,46.5,22.31,SSE,162,0.0,4.0,90,0.00,,,0.09,Wunderground v.1.15,2013-01-11 05:48:00,
2013-01-10 23:53:00,49.3,46.5,22.31,SSE,163,1.0,5.0,90,0.00,,,0.09,Wunderground v.1.15,2013-01-11 05:53:00,
2013-01-10 23:58:00,49.2,46.4,22.31,East,101,1.0,5.0,90,0.00,,,0.00,Wunderground v.1.15,2013-01-11 05:58:00,